Voltar ao catálogo

FLOCK 4H 6

AtivoCiênciaSSO
NORAD 66709·PAYLOAD·🇺🇸 United States

Lançado Nov 28, 2025 de Vandenberg Space Force Base

Loading…

Próximas Passagens (próximas 24 horas)

TLE

AtualizadoSource: Space-Track

Época: Sep 13, 2026, 04:28 UTC

1 66709U 25276AV  26256.18618707  .00003104  00000-0  14225-3 0  9994
2 66709  97.4159 328.5845 0003937  48.5580 311.5993 15.21203380 43803

Acompanhe FLOCK 4H 6 em tempo real com AllMySat

Download on the App Store